Time,TemperatureF,DewpointF,PressureIn,WindDirection,WindDirectionDegrees,WindSpeedMPH,WindSpeedGustMPH,Humidity,HourlyPrecipIn,Conditions,Clouds,dailyrainin,SoftwareType,DateUTC
2013-01-07 00:03:00,39.5,26.3,29.96,WNW,297,0.0,0.0,59,0.00,,,0.00,Wunderground v.1.15,2013-01-07 07:03:00,
2013-01-07 00:08:00,39.6,26.0,29.96,WNW,297,0.0,0.0,58,0.00,,,0.00,Wunderground v.1.15,2013-01-07 07:08:00,
2013-01-07 00:14:00,39.5,25.9,29.96,WNW,297,0.0,0.0,58,0.00,,,0.00,Wunderground v.1.15,2013-01-07 07:14:00,
2013-01-07 00:19:00,39.1,26.0,29.95,WNW,297,0.0,0.0,59,0.00,,,0.00,Wunderground v.1.15,2013-01-07 07:19:00,
2013-01-07 00:25:00,38.6,25.9,29.95,WNW,297,0.0,0.0,60,0.00,,,0.00,Wunderground v.1.15,2013-01-07 07:25:00,
2013-01-07 00:31:00,38.2,25.9,29.95,WNW,297,0.0,0.0,61,0.00,,,0.00,Wunderground v.1.15,2013-01-07 07:31:00,
2013-01-07 00:36:00,38.0,25.7,29.95,WNW,297,0.0,0.0,61,0.00,,,0.00,Wunderground v.1.15,2013-01-07 07:36:00,
2013-01-07 00:42:00,37.6,25.4,29.95,WNW,297,0.0,0.0,61,0.00,,,0.00,Wunderground v.1.15,2013-01-07 07:42:00,
2013-01-07 00:47:00,37.1,25.7,29.95,WNW,297,0.0,0.0,63,0.00,,,0.00,Wunderground v.1.15,2013-01-07 07:47:00,
2013-01-07 00:53:00,36.5,25.5,29.95,WNW,297,0.0,0.0,64,0.00,,,0.00,Wunderground v.1.15,2013-01-07 07:53:00,
2013-01-07 00:58:00,36.3,25.7,29.94,WNW,297,0.0,0.0,65,0.00,,,0.00,Wunderground v.1.15,2013-01-07 07:58:00,
2013-01-07 01:04:00,36.3,25.7,29.94,WNW,297,0.0,0.0,65,0.00,,,0.00,Wunderground v.1.15,2013-01-07 08:04:00,
2013-01-07 01:09:00,36.3,25.7,29.94,WNW,297,0.0,0.0,65,0.00,,,0.00,Wunderground v.1.15,2013-01-07 08:09:00,
2013-01-07 01:15:00,36.3,26.0,29.94,WNW,297,0.0,0.0,66,0.00,,,0.00,Wunderground v.1.15,2013-01-07 08:15:00,
2013-01-07 01:21:00,36.5,26.2,29.93,WNW,297,0.0,0.0,66,0.00,,,0.00,Wunderground v.1.15,2013-01-07 08:21:00,
2013-01-07 01:26:00,36.8,26.1,29.94,WNW,297,0.0,0.0,65,0.00,,,0.00,Wunderground v.1.15,2013-01-07 08:26:00,
2013-01-07 01:31:00,37.2,26.5,29.94,WNW,297,0.0,0.0,65,0.00,,,0.00,Wunderground v.1.15,2013-01-07 08:31:00,
2013-01-07 01:37:00,37.2,26.1,29.94,WNW,297,0.0,0.0,64,0.00,,,0.00,Wunderground v.1.15,2013-01-07 08:37:00,
2013-01-07 01:42:00,37.2,26.1,29.95,WNW,297,0.0,0.0,64,0.00,,,0.00,Wunderground v.1.15,2013-01-07 08:42:00,
2013-01-07 01:47:00,37.2,26.1,29.94,WNW,297,0.0,0.0,64,0.00,,,0.00,Wunderground v.1.15,2013-01-07 08:47:00,
2013-01-07 01:52:00,37.3,26.2,29.94,WNW,297,0.0,0.0,64,0.00,,,0.00,Wunderground v.1.15,2013-01-07 08:52:00,
2013-01-07 01:57:00,37.1,26.0,29.94,WNW,297,0.0,0.0,64,0.00,,,0.00,Wunderground v.1.15,2013-01-07 08:57:00,
2013-01-07 02:02:00,36.7,25.7,29.94,WNW,297,0.0,0.0,64,0.00,,,0.00,Wunderground v.1.15,2013-01-07 09:02:00,
2013-01-07 02:07:00,36.4,25.7,29.94,WNW,297,0.0,0.0,65,0.00,,,0.00,Wunderground v.1.15,2013-01-07 09:07:00,
2013-01-07 02:12:00,36.0,25.7,29.93,WNW,297,0.0,0.0,66,0.00,,,0.00,Wunderground v.1.15,2013-01-07 09:12:00,
2013-01-07 02:17:00,35.5,25.3,29.93,WNW,297,0.0,0.0,66,0.00,,,0.00,Wunderground v.1.15,2013-01-07 09:17:00,
2013-01-07 02:22:00,35.2,25.3,29.93,WNW,297,0.0,0.0,67,0.00,,,0.00,Wunderground v.1.15,2013-01-07 09:22:00,
2013-01-07 02:27:00,34.9,25.4,29.93,WNW,297,0.0,0.0,68,0.00,,,0.00,Wunderground v.1.15,2013-01-07 09:27:00,
2013-01-07 02:32:00,34.4,24.9,29.93,WNW,297,0.0,0.0,68,0.00,,,0.00,Wunderground v.1.15,2013-01-07 09:32:00,
2013-01-07 02:37:00,34.0,24.9,29.94,WNW,297,0.0,2.0,69,0.00,,,0.00,Wunderground v.1.15,2013-01-07 09:37:00,
2013-01-07 02:42:00,33.7,25.3,29.94,WNW,297,0.0,0.0,71,0.00,,,0.00,Wunderground v.1.15,2013-01-07 09:42:00,
2013-01-07 02:47:00,33.6,25.2,29.93,WNW,297,0.0,0.0,71,0.00,,,0.00,Wunderground v.1.15,2013-01-07 09:47:00,
2013-01-07 02:52:00,33.5,25.1,29.94,WNW,297,0.0,0.0,71,0.00,,,0.00,Wunderground v.1.15,2013-01-07 09:52:00,
2013-01-07 02:57:00,33.5,25.4,29.94,WNW,297,0.0,0.0,72,0.00,,,0.00,Wunderground v.1.15,2013-01-07 09:57:00,
2013-01-07 03:03:00,33.4,25.3,29.93,WNW,297,0.0,0.0,72,0.00,,,0.00,Wunderground v.1.15,2013-01-07 10:03:00,
2013-01-07 03:08:00,33.7,26.0,29.93,WNW,297,0.0,0.0,73,0.00,,,0.00,Wunderground v.1.15,2013-01-07 10:08:00,
2013-01-07 03:13:00,34.2,25.8,29.93,WNW,297,0.0,0.0,71,0.00,,,0.00,Wunderground v.1.15,2013-01-07 10:13:00,
2013-01-07 03:18:00,34.2,25.8,29.93,WNW,297,0.0,0.0,71,0.00,,,0.00,Wunderground v.1.15,2013-01-07 10:18:00,
2013-01-07 03:23:00,34.1,25.7,29.93,WNW,297,0.0,0.0,71,0.00,,,0.00,Wunderground v.1.15,2013-01-07 10:23:00,
2013-01-07 03:28:00,34.3,26.2,29.93,WNW,297,0.0,0.0,72,0.00,,,0.00,Wunderground v.1.15,2013-01-07 10:28:00,
2013-01-07 03:33:00,34.6,26.2,29.93,WNW,297,0.0,0.0,71,0.00,,,0.00,Wunderground v.1.15,2013-01-07 10:33:00,
2013-01-07 03:38:00,34.7,26.3,29.93,WNW,297,0.0,0.0,71,0.00,,,0.00,Wunderground v.1.15,2013-01-07 10:38:00,
2013-01-07 03:43:00,35.0,26.5,29.93,WNW,297,0.0,0.0,71,0.00,,,0.00,Wunderground v.1.15,2013-01-07 10:43:00,
2013-01-07 03:48:00,35.0,26.5,29.93,WNW,297,0.0,0.0,71,0.00,,,0.00,Wunderground v.1.15,2013-01-07 10:48:00,
2013-01-07 03:53:00,35.1,26.6,29.93,WNW,297,0.0,0.0,71,0.00,,,0.00,Wunderground v.1.15,2013-01-07 10:53:00,
2013-01-07 03:58:00,35.0,26.5,29.93,WNW,297,0.0,0.0,71,0.00,,,0.00,Wunderground v.1.15,2013-01-07 10:58:00,
2013-01-07 04:03:00,34.9,26.4,29.93,WNW,297,0.0,0.0,71,0.00,,,0.00,Wunderground v.1.15,2013-01-07 11:03:00,
2013-01-07 04:08:00,34.9,26.4,29.92,WNW,297,0.0,0.0,71,0.00,,,0.00,Wunderground v.1.15,2013-01-07 11:08:00,
2013-01-07 04:13:00,34.8,26.4,29.93,WNW,297,0.0,0.0,71,0.00,,,0.00,Wunderground v.1.15,2013-01-07 11:13:00,
2013-01-07 04:18:00,34.8,26.4,29.92,WNW,297,0.0,0.0,71,0.00,,,0.00,Wunderground v.1.15,2013-01-07 11:18:00,
2013-01-07 04:23:00,34.6,26.2,29.92,WNW,297,0.0,0.0,71,0.00,,,0.00,Wunderground v.1.15,2013-01-07 11:23:00,
2013-01-07 04:28:00,34.6,26.2,29.92,WNW,297,0.0,0.0,71,0.00,,,0.00,Wunderground v.1.15,2013-01-07 11:28:00,
2013-01-07 04:33:00,34.6,25.8,29.92,WNW,297,0.0,0.0,70,0.00,,,0.00,Wunderground v.1.15,2013-01-07 11:33:00,
2013-01-07 04:38:00,34.4,25.6,29.92,WNW,297,0.0,0.0,70,0.00,,,0.00,Wunderground v.1.15,2013-01-07 11:38:00,
2013-01-07 04:43:00,34.1,25.7,29.91,WNW,297,0.0,0.0,71,0.00,,,0.00,Wunderground v.1.15,2013-01-07 11:43:00,
2013-01-07 04:48:00,33.9,25.5,29.92,WNW,297,0.0,0.0,71,0.00,,,0.00,Wunderground v.1.15,2013-01-07 11:48:00,
2013-01-07 04:53:00,33.7,25.3,29.91,WNW,297,0.0,0.0,71,0.00,,,0.00,Wunderground v.1.15,2013-01-07 11:53:00,
2013-01-07 04:58:00,33.5,25.4,29.91,WNW,297,0.0,0.0,72,0.00,,,0.00,Wunderground v.1.15,2013-01-07 11:58:00,
2013-01-07 05:03:00,33.4,25.3,29.91,WNW,297,0.0,0.0,72,0.00,,,0.00,Wunderground v.1.15,2013-01-07 12:03:00,
2013-01-07 05:08:00,33.2,25.1,29.91,WNW,297,0.0,0.0,72,0.00,,,0.00,Wunderground v.1.15,2013-01-07 12:08:00,
2013-01-07 05:13:00,32.9,24.9,29.91,WNW,297,0.0,0.0,72,0.00,,,0.00,Wunderground v.1.15,2013-01-07 12:13:00,
2013-01-07 05:18:00,32.7,24.7,29.91,WNW,297,0.0,0.0,72,0.00,,,0.00,Wunderground v.1.15,2013-01-07 12:18:00,
2013-01-07 05:23:00,32.4,24.7,29.91,WNW,297,0.0,0.0,73,0.00,,,0.00,Wunderground v.1.15,2013-01-07 12:23:00,
2013-01-07 05:28:00,32.2,24.5,29.91,WNW,297,0.0,0.0,73,0.00,,,0.00,Wunderground v.1.15,2013-01-07 12:28:00,
2013-01-07 05:33:00,31.9,24.6,29.91,WNW,297,0.0,0.0,74,0.00,,,0.00,Wunderground v.1.15,2013-01-07 12:33:00,
2013-01-07 05:38:00,31.8,25.1,29.91,WNW,297,0.0,0.0,76,0.00,,,0.00,Wunderground v.1.15,2013-01-07 12:38:00,
2013-01-07 05:43:00,31.8,25.1,29.91,WNW,297,0.0,0.0,76,0.00,,,0.00,Wunderground v.1.15,2013-01-07 12:43:00,
2013-01-07 05:48:00,32.0,25.9,29.91,WNW,297,0.0,0.0,78,0.00,,,0.00,Wunderground v.1.15,2013-01-07 12:48:00,
2013-01-07 05:53:00,32.2,26.1,29.92,WNW,297,0.0,0.0,78,0.00,,,0.00,Wunderground v.1.15,2013-01-07 12:53:00,
2013-01-07 05:58:00,32.3,26.5,29.91,WNW,297,0.0,1.0,79,0.00,,,0.00,Wunderground v.1.15,2013-01-07 12:58:00,
2013-01-07 06:03:00,32.6,26.5,29.91,WNW,297,0.0,0.0,78,0.00,,,0.00,Wunderground v.1.15,2013-01-07 13:03:00,
2013-01-07 06:08:00,32.6,26.5,29.91,WNW,297,0.0,0.0,78,0.00,,,0.00,Wunderground v.1.15,2013-01-07 13:08:00,
2013-01-07 06:13:00,32.4,26.0,29.91,WNW,297,0.0,0.0,77,0.00,,,0.00,Wunderground v.1.15,2013-01-07 13:13:00,
2013-01-07 06:18:00,32.1,25.7,29.91,WNW,297,0.0,0.0,77,0.00,,,0.00,Wunderground v.1.15,2013-01-07 13:18:00,
2013-01-07 06:23:00,31.8,25.4,29.91,WNW,297,0.0,0.0,77,0.00,,,0.00,Wunderground v.1.15,2013-01-07 13:23:00,
2013-01-07 06:28:00,31.6,25.2,29.91,WNW,297,0.0,0.0,77,0.00,,,0.00,Wunderground v.1.15,2013-01-07 13:28:00,
2013-01-07 06:33:00,31.5,25.4,29.91,WNW,297,0.0,0.0,78,0.00,,,0.00,Wunderground v.1.15,2013-01-07 13:33:00,
2013-01-07 06:38:00,31.5,25.4,29.92,WNW,297,0.0,0.0,78,0.00,,,0.00,Wunderground v.1.15,2013-01-07 13:38:00,
2013-01-07 06:43:00,31.6,25.2,29.91,WNW,297,0.0,0.0,77,0.00,,,0.00,Wunderground v.1.15,2013-01-07 13:43:00,
2013-01-07 06:48:00,31.6,25.2,29.91,WNW,297,0.0,0.0,77,0.00,,,0.00,Wunderground v.1.15,2013-01-07 13:48:00,
2013-01-07 06:53:00,31.5,24.8,29.92,WNW,297,0.0,0.0,76,0.00,,,0.00,Wunderground v.1.15,2013-01-07 13:53:00,
2013-01-07 06:58:00,31.2,24.8,29.92,WNW,297,0.0,0.0,77,0.00,,,0.00,Wunderground v.1.15,2013-01-07 13:58:00,
2013-01-07 07:03:00,31.1,25.0,29.92,WNW,297,0.0,0.0,78,0.00,,,0.00,Wunderground v.1.15,2013-01-07 14:03:00,
2013-01-07 07:08:00,31.1,25.0,29.92,WNW,297,0.0,0.0,78,0.00,,,0.00,Wunderground v.1.15,2013-01-07 14:08:00,
2013-01-07 07:13:00,31.0,24.9,29.92,WNW,297,0.0,0.0,78,0.00,,,0.00,Wunderground v.1.15,2013-01-07 14:13:00,
2013-01-07 07:18:00,31.1,25.0,29.92,WNW,297,0.0,0.0,78,0.00,,,0.00,Wunderground v.1.15,2013-01-07 14:18:00,
2013-01-07 07:23:00,31.1,25.0,29.92,WNW,297,0.0,0.0,78,0.00,,,0.00,Wunderground v.1.15,2013-01-07 14:23:00,
2013-01-07 07:29:00,31.2,25.4,29.93,WNW,297,0.0,0.0,79,0.00,,,0.00,Wunderground v.1.15,2013-01-07 14:29:00,
2013-01-07 07:34:00,31.2,25.1,29.92,WNW,297,0.0,0.0,78,0.00,,,0.00,Wunderground v.1.15,2013-01-07 14:34:00,
2013-01-07 07:39:00,31.2,25.1,29.92,WNW,297,0.0,0.0,78,0.00,,,0.00,Wunderground v.1.15,2013-01-07 14:39:00,
2013-01-07 07:44:00,31.2,25.1,29.92,WNW,297,0.0,0.0,78,0.00,,,0.00,Wunderground v.1.15,2013-01-07 14:44:00,
2013-01-07 07:49:00,31.4,25.3,29.93,WNW,297,0.0,0.0,78,0.00,,,0.00,Wunderground v.1.15,2013-01-07 14:49:00,
2013-01-07 07:54:00,31.6,25.2,29.93,WNW,297,0.0,0.0,77,0.00,,,0.00,Wunderground v.1.15,2013-01-07 14:54:00,
2013-01-07 07:59:00,31.7,25.3,29.93,WNW,297,0.0,4.0,77,0.00,,,0.00,Wunderground v.1.15,2013-01-07 14:59:00,
2013-01-07 08:04:00,32.0,25.6,29.93,WNW,297,4.0,4.0,77,0.00,,,0.00,Wunderground v.1.15,2013-01-07 15:04:00,
2013-01-07 08:09:00,32.7,26.0,29.93,WNW,297,0.0,4.0,76,0.00,,,0.00,Wunderground v.1.15,2013-01-07 15:09:00,
2013-01-07 08:14:00,33.5,26.4,29.93,WNW,297,0.0,1.0,75,0.00,,,0.00,Wunderground v.1.15,2013-01-07 15:14:00,
2013-01-07 08:19:00,34.4,26.6,29.94,WNW,297,0.0,1.0,73,0.00,,,0.00,Wunderground v.1.15,2013-01-07 15:19:00,
2013-01-07 08:24:00,35.4,27.3,29.94,WNW,297,0.0,0.0,72,0.00,,,0.00,Wunderground v.1.15,2013-01-07 15:24:00,
2013-01-07 08:29:00,36.5,27.6,29.94,WNW,297,0.0,0.0,70,0.00,,,0.00,Wunderground v.1.15,2013-01-07 15:29:00,
2013-01-07 08:34:00,37.5,27.5,29.94,WNW,297,0.0,0.0,67,0.00,,,0.00,Wunderground v.1.15,2013-01-07 15:34:00,
2013-01-07 08:39:00,38.4,27.7,29.94,WNW,297,0.0,0.0,65,0.00,,,0.00,Wunderground v.1.15,2013-01-07 15:39:00,
2013-01-07 08:44:00,39.0,27.5,29.94,WNW,297,0.0,2.0,63,0.00,,,0.00,Wunderground v.1.15,2013-01-07 15:44:00,
2013-01-07 08:49:00,39.3,27.7,29.94,WNW,297,0.0,2.0,63,0.00,,,0.00,Wunderground v.1.15,2013-01-07 15:49:00,
2013-01-07 08:54:00,39.5,27.9,29.94,WNW,297,0.0,0.0,63,0.00,,,0.00,Wunderground v.1.15,2013-01-07 15:54:00,
2013-01-07 08:59:00,39.7,27.7,29.94,WNW,297,0.0,0.0,62,0.00,,,0.00,Wunderground v.1.15,2013-01-07 15:59:00,
2013-01-07 09:04:00,40.0,28.0,29.94,WNW,297,0.0,0.0,62,0.00,,,0.00,Wunderground v.1.15,2013-01-07 16:04:00,
2013-01-07 09:09:00,40.2,28.2,29.94,WNW,297,0.0,0.0,62,0.00,,,0.00,Wunderground v.1.15,2013-01-07 16:09:00,
2013-01-07 09:14:00,40.6,28.2,29.94,WNW,297,0.0,0.0,61,0.00,,,0.00,Wunderground v.1.15,2013-01-07 16:14:00,
2013-01-07 09:19:00,41.2,28.4,29.94,WNW,297,0.0,0.0,60,0.00,,,0.00,Wunderground v.1.15,2013-01-07 16:19:00,
2013-01-07 09:24:00,41.9,28.2,29.94,WNW,297,0.0,0.0,58,0.00,,,0.00,Wunderground v.1.15,2013-01-07 16:24:00,
2013-01-07 09:29:00,42.7,28.5,29.94,WNW,297,0.0,0.0,57,0.00,,,0.00,Wunderground v.1.15,2013-01-07 16:29:00,
2013-01-07 09:34:00,43.3,28.6,29.94,WNW,297,1.0,2.0,56,0.00,,,0.00,Wunderground v.1.15,2013-01-07 16:34:00,
2013-01-07 09:39:00,43.8,28.7,29.94,WNW,297,0.0,2.0,55,0.00,,,0.00,Wunderground v.1.15,2013-01-07 16:39:00,
2013-01-07 09:44:00,44.4,28.3,29.94,WNW,297,1.0,5.0,53,0.00,,,0.00,Wunderground v.1.15,2013-01-07 16:44:00,
2013-01-07 09:50:00,44.7,28.1,29.94,WNW,297,2.0,2.0,52,0.00,,,0.00,Wunderground v.1.15,2013-01-07 16:50:00,
2013-01-07 09:55:00,44.7,27.7,29.95,WNW,297,0.0,4.0,51,0.00,,,0.00,Wunderground v.1.15,2013-01-07 16:55:00,
2013-01-07 10:00:00,44.9,27.8,29.95,WNW,297,0.0,1.0,51,0.00,,,0.00,Wunderground v.1.15,2013-01-07 17:00:00,
2013-01-07 10:05:00,45.1,27.6,29.95,WNW,297,0.0,4.0,50,0.00,,,0.00,Wunderground v.1.15,2013-01-07 17:05:00,
2013-01-07 10:10:00,45.6,28.0,29.95,WNW,297,2.0,2.0,50,0.00,,,0.00,Wunderground v.1.15,2013-01-07 17:10:00,
2013-01-07 10:15:00,46.1,27.0,29.95,WNW,297,0.0,4.0,47,0.00,,,0.00,Wunderground v.1.15,2013-01-07 17:15:00,
2013-01-07 10:20:00,46.7,27.5,29.95,WNW,297,0.0,1.0,47,0.00,,,0.00,Wunderground v.1.15,2013-01-07 17:20:00,
2013-01-07 10:25:00,47.4,27.1,29.95,WNW,297,0.0,1.0,45,0.00,,,0.00,Wunderground v.1.15,2013-01-07 17:25:00,
2013-01-07 10:30:00,48.1,27.7,29.94,WNW,297,0.0,0.0,45,0.00,,,0.00,Wunderground v.1.15,2013-01-07 17:30:00,
2013-01-07 10:35:00,48.7,28.3,29.94,WNW,297,0.0,0.0,45,0.00,,,0.00,Wunderground v.1.15,2013-01-07 17:35:00,
2013-01-07 10:40:00,49.5,27.9,29.94,WNW,297,0.0,0.0,43,0.00,,,0.00,Wunderground v.1.15,2013-01-07 17:40:00,
2013-01-07 10:45:00,50.2,28.0,29.94,WNW,297,0.0,0.0,42,0.00,,,0.00,Wunderground v.1.15,2013-01-07 17:45:00,
2013-01-07 10:50:00,50.7,27.8,29.94,WNW,297,0.0,0.0,41,0.00,,,0.00,Wunderground v.1.15,2013-01-07 17:50:00,
2013-01-07 10:55:00,50.9,27.4,29.93,WNW,297,0.0,1.0,40,0.00,,,0.00,Wunderground v.1.15,2013-01-07 17:55:00,
2013-01-07 11:00:00,51.4,26.6,29.93,WNW,297,0.0,4.0,38,0.00,,,0.00,Wunderground v.1.15,2013-01-07 18:00:00,
2013-01-07 11:05:00,51.4,26.6,29.93,WNW,297,2.0,7.0,38,0.00,,,0.00,Wunderground v.1.15,2013-01-07 18:05:00,
2013-01-07 11:10:00,51.5,27.3,29.93,WNW,297,0.0,5.0,39,0.00,,,0.00,Wunderground v.1.15,2013-01-07 18:10:00,
2013-01-07 11:15:00,51.6,26.1,29.92,WNW,297,5.0,7.0,37,0.00,,,0.00,Wunderground v.1.15,2013-01-07 18:15:00,
2013-01-07 11:20:00,51.6,26.1,29.92,WNW,297,0.0,2.0,37,0.00,,,0.00,Wunderground v.1.15,2013-01-07 18:20:00,
2013-01-07 11:25:00,52.0,26.5,29.91,WNW,297,0.0,6.0,37,0.00,,,0.00,Wunderground v.1.15,2013-01-07 18:25:00,
2013-01-07 11:30:00,52.2,26.7,29.91,WNW,297,2.0,4.0,37,0.00,,,0.00,Wunderground v.1.15,2013-01-07 18:30:00,
2013-01-07 11:35:00,52.8,27.2,29.91,WNW,297,0.0,4.0,37,0.00,,,0.00,Wunderground v.1.15,2013-01-07 18:35:00,
2013-01-07 11:40:00,53.4,27.1,29.91,WNW,297,1.0,1.0,36,0.00,,,0.00,Wunderground v.1.15,2013-01-07 18:40:00,
2013-01-07 11:45:00,53.4,26.4,29.91,WNW,298,0.0,7.0,35,0.00,,,0.00,Wunderground v.1.15,2013-01-07 18:45:00,
2013-01-07 11:50:00,53.5,26.5,29.90,WNW,298,0.0,2.0,35,0.00,,,0.00,Wunderground v.1.15,2013-01-07 18:50:00,
2013-01-07 11:55:00,53.7,26.0,29.91,WNW,299,4.0,6.0,34,0.00,,,0.00,Wunderground v.1.15,2013-01-07 18:55:00,
2013-01-07 12:00:00,53.5,25.8,29.90,WNW,300,2.0,4.0,34,0.00,,,0.00,Wunderground v.1.15,2013-01-07 19:00:00,
2013-01-07 12:05:00,53.4,25.7,29.90,WNW,303,8.0,11.0,34,0.00,,,0.00,Wunderground v.1.15,2013-01-07 19:05:00,
2013-01-07 12:10:00,53.6,25.9,29.90,NW,312,0.0,3.0,34,0.00,,,0.00,Wunderground v.1.15,2013-01-07 19:10:00,
2013-01-07 12:15:00,53.9,26.1,29.89,NW,320,5.0,11.0,34,0.00,,,0.00,Wunderground v.1.15,2013-01-07 19:15:00,
2013-01-07 12:20:00,54.1,26.3,29.89,NW,316,6.0,6.0,34,0.00,,,0.00,Wunderground v.1.15,2013-01-07 19:20:00,
2013-01-07 12:25:00,54.1,26.3,29.89,NW,309,2.0,12.0,34,0.00,,,0.00,Wunderground v.1.15,2013-01-07 19:25:00,
2013-01-07 12:30:00,53.9,26.8,29.88,NW,316,8.0,9.0,35,0.00,,,0.00,Wunderground v.1.15,2013-01-07 19:30:00,
2013-01-07 12:35:00,54.1,26.3,29.88,NW,319,7.0,13.0,34,0.00,,,0.00,Wunderground v.1.15,2013-01-07 19:35:00,
2013-01-07 12:40:00,54.0,26.2,29.88,WNW,294,12.0,12.0,34,0.00,,,0.00,Wunderground v.1.15,2013-01-07 19:40:00,
2013-01-07 12:45:00,53.9,26.8,29.88,WNW,297,7.0,14.0,35,0.00,,,0.00,Wunderground v.1.15,2013-01-07 19:45:00,
2013-01-07 12:50:00,53.7,26.7,29.88,NW,306,2.0,9.0,35,0.00,,,0.00,Wunderground v.1.15,2013-01-07 19:50:00,
2013-01-07 12:55:00,53.3,26.3,29.88,NW,309,1.0,12.0,35,0.00,,,0.00,Wunderground v.1.15,2013-01-07 19:55:00,
2013-01-07 13:01:00,53.7,27.4,29.88,NW,304,4.0,8.0,36,0.00,,,0.00,Wunderground v.1.15,2013-01-07 20:01:00,
2013-01-07 13:06:00,54.2,27.1,29.87,WNW,291,1.0,11.0,35,0.00,,,0.00,Wunderground v.1.15,2013-01-07 20:06:00,
2013-01-07 13:11:00,54.2,26.4,29.87,NW,319,9.0,12.0,34,0.00,,,0.00,Wunderground v.1.15,2013-01-07 20:11:00,
2013-01-07 13:16:00,54.0,26.9,29.87,WNW,296,7.0,13.0,35,0.00,,,0.00,Wunderground v.1.15,2013-01-07 20:16:00,
2013-01-07 13:19:00,54.0,26.2,29.87,NW,315,10.0,13.0,34,0.00,,,0.00,Wunderground v.1.15,2013-01-07 20:19:00,
2013-01-07 13:24:00,53.9,26.1,29.87,WNW,302,8.0,12.0,34,0.00,,,0.00,Wunderground v.1.15,2013-01-07 20:24:00,
2013-01-07 13:29:00,54.1,26.3,29.87,WNW,300,0.0,12.0,34,0.00,,,0.00,Wunderground v.1.15,2013-01-07 20:29:00,
2013-01-07 13:34:00,54.6,26.8,29.86,WNW,301,12.0,12.0,34,0.00,,,0.00,Wunderground v.1.15,2013-01-07 20:34:00,
2013-01-07 13:39:00,54.3,25.8,29.86,NW,305,1.0,12.0,33,0.00,,,0.00,Wunderground v.1.15,2013-01-07 20:39:00,
2013-01-07 13:44:00,54.2,26.4,29.86,NW,304,4.0,13.0,34,0.00,,,0.00,Wunderground v.1.15,2013-01-07 20:44:00,
2013-01-07 13:49:00,54.2,26.4,29.86,NW,311,1.0,13.0,34,0.00,,,0.00,Wunderground v.1.15,2013-01-07 20:49:00,
2013-01-07 13:54:00,54.3,26.5,29.86,NW,313,6.0,11.0,34,0.00,,,0.00,Wunderground v.1.15,2013-01-07 20:54:00,
2013-01-07 13:59:00,54.4,26.6,29.86,WNW,300,4.0,11.0,34,0.00,,,0.00,Wunderground v.1.15,2013-01-07 20:59:00,
2013-01-07 14:04:00,54.4,26.6,29.85,NW,315,5.0,12.0,34,0.00,,,0.00,Wunderground v.1.15,2013-01-07 21:04:00,
2013-01-07 14:09:00,55.0,27.1,29.85,WNW,292,1.0,12.0,34,0.00,,,0.00,Wunderground v.1.15,2013-01-07 21:09:00,
2013-01-07 14:15:00,55.6,26.9,29.85,WNW,298,0.0,12.0,33,0.00,,,0.00,Wunderground v.1.15,2013-01-07 21:15:00,
2013-01-07 14:20:00,55.8,27.1,29.85,WNW,290,1.0,4.0,33,0.00,,,0.00,Wunderground v.1.15,2013-01-07 21:20:00,
2013-01-07 14:25:00,55.3,25.9,29.85,NW,309,11.0,18.0,32,0.00,,,0.00,Wunderground v.1.15,2013-01-07 21:25:00,
2013-01-07 14:29:00,55.0,26.4,29.84,WNW,293,9.0,18.0,33,0.00,,,0.00,Wunderground v.1.15,2013-01-07 21:29:00,
2013-01-07 14:34:00,55.1,27.2,29.84,WNW,291,2.0,14.0,34,0.00,,,0.00,Wunderground v.1.15,2013-01-07 21:34:00,
2013-01-07 14:39:00,55.3,26.7,29.84,NW,306,11.0,14.0,33,0.00,,,0.00,Wunderground v.1.15,2013-01-07 21:39:00,
2013-01-07 14:44:00,55.3,26.7,29.84,NW,305,7.0,14.0,33,0.00,,,0.00,Wunderground v.1.15,2013-01-07 21:44:00,
2013-01-07 14:49:00,55.3,27.4,29.84,WNW,295,5.0,18.0,34,0.00,,,0.00,Wunderground v.1.15,2013-01-07 21:49:00,
2013-01-07 14:54:00,55.1,27.2,29.84,WNW,294,13.0,17.0,34,0.00,,,0.00,Wunderground v.1.15,2013-01-07 21:54:00,
2013-01-07 14:59:00,54.8,27.6,29.85,WNW,287,2.0,18.0,35,0.00,,,0.00,Wunderground v.1.15,2013-01-07 21:59:00,
2013-01-07 15:04:00,54.7,27.6,29.85,WNW,299,9.0,15.0,35,0.00,,,0.00,Wunderground v.1.15,2013-01-07 22:04:00,
2013-01-07 15:09:00,54.6,27.5,29.84,WNW,292,7.0,18.0,35,0.00,,,0.00,Wunderground v.1.15,2013-01-07 22:09:00,
2013-01-07 15:14:00,54.6,27.5,29.84,WNW,294,8.0,12.0,35,0.00,,,0.00,Wunderground v.1.15,2013-01-07 22:14:00,
2013-01-07 15:19:00,54.5,28.1,29.85,WNW,292,8.0,13.0,36,0.00,,,0.00,Wunderground v.1.15,2013-01-07 22:19:00,
2013-01-07 15:25:00,54.1,27.7,29.85,West,269,3.0,19.0,36,0.00,,,0.00,Wunderground v.1.15,2013-01-07 22:25:00,
2013-01-07 15:30:00,54.2,28.5,29.85,WNW,300,7.0,7.0,37,0.00,,,0.00,Wunderground v.1.15,2013-01-07 22:30:00,
2013-01-07 15:35:00,54.4,28.0,29.85,WNW,300,6.0,13.0,36,0.00,,,0.00,Wunderground v.1.15,2013-01-07 22:35:00,
2013-01-07 15:40:00,54.6,27.5,29.85,NW,309,6.0,8.0,35,0.00,,,0.00,Wunderground v.1.15,2013-01-07 22:40:00,
2013-01-07 15:45:00,54.6,27.5,29.85,WNW,302,4.0,12.0,35,0.00,,,0.00,Wunderground v.1.15,2013-01-07 22:45:00,
2013-01-07 15:50:00,54.6,27.5,29.86,WNW,291,8.0,9.0,35,0.00,,,0.00,Wunderground v.1.15,2013-01-07 22:50:00,
2013-01-07 15:55:00,54.4,28.0,29.86,WNW,286,4.0,17.0,36,0.00,,,0.00,Wunderground v.1.15,2013-01-07 22:55:00,
2013-01-07 16:00:00,54.3,27.2,29.86,WNW,293,5.0,11.0,35,0.00,,,0.00,Wunderground v.1.15,2013-01-07 23:00:00,
2013-01-07 16:05:00,54.1,27.7,29.86,West,269,2.0,15.0,36,0.00,,,0.00,Wunderground v.1.15,2013-01-07 23:05:00,
2013-01-07 16:10:00,53.9,27.5,29.86,WNW,294,4.0,7.0,36,0.00,,,0.00,Wunderground v.1.15,2013-01-07 23:10:00,
2013-01-07 16:15:00,53.7,28.0,29.86,West,281,7.0,18.0,37,0.00,,,0.00,Wunderground v.1.15,2013-01-07 23:15:00,
2013-01-07 16:20:00,53.4,27.8,29.86,WNW,294,2.0,7.0,37,0.00,,,0.00,Wunderground v.1.15,2013-01-07 23:20:00,
2013-01-07 16:25:00,53.3,28.3,29.86,WNW,284,5.0,12.0,38,0.00,,,0.00,Wunderground v.1.15,2013-01-07 23:25:00,
2013-01-07 16:30:00,53.0,28.0,29.86,WNW,291,8.0,14.0,38,0.00,,,0.00,Wunderground v.1.15,2013-01-07 23:30:00,
2013-01-07 16:35:00,52.8,27.9,29.86,WNW,285,5.0,14.0,38,0.00,,,0.00,Wunderground v.1.15,2013-01-07 23:35:00,
2013-01-07 16:40:00,52.7,27.8,29.86,West,275,4.0,11.0,38,0.00,,,0.00,Wunderground v.1.15,2013-01-07 23:40:00,
2013-01-07 16:45:00,52.6,27.7,29.87,WNW,297,6.0,12.0,38,0.00,,,0.00,Wunderground v.1.15,2013-01-07 23:45:00,
2013-01-07 16:50:00,52.3,27.4,29.87,WNW,298,9.0,16.0,38,0.00,,,0.00,Wunderground v.1.15,2013-01-07 23:50:00,
2013-01-07 16:55:00,52.1,27.9,29.87,WNW,293,0.0,16.0,39,0.00,,,0.00,Wunderground v.1.15,2013-01-07 23:55:00,
2013-01-07 17:00:00,51.9,27.7,29.87,West,271,5.0,8.0,39,0.00,,,0.00,Wunderground v.1.15,2013-01-08 00:00:00,
2013-01-07 17:05:00,51.5,27.3,29.87,WNW,288,9.0,18.0,39,0.00,,,0.00,Wunderground v.1.15,2013-01-08 00:05:00,
2013-01-07 17:11:00,51.1,27.0,29.88,WNW,293,4.0,7.0,39,0.00,,,0.00,Wunderground v.1.15,2013-01-08 00:11:00,
2013-01-07 17:16:00,50.8,27.3,29.88,WNW,288,7.0,14.0,40,0.00,,,0.00,Wunderground v.1.15,2013-01-08 00:16:00,
2013-01-07 17:21:00,50.6,27.1,29.88,WNW,293,4.0,9.0,40,0.00,,,0.00,Wunderground v.1.15,2013-01-08 00:21:00,
2013-01-07 17:26:00,50.3,26.9,29.88,WNW,287,2.0,9.0,40,0.00,,,0.00,Wunderground v.1.15,2013-01-08 00:26:00,
2013-01-07 17:31:00,50.1,26.7,29.88,WNW,288,2.0,6.0,40,0.00,,,0.00,Wunderground v.1.15,2013-01-08 00:31:00,
2013-01-07 17:36:00,49.9,27.1,29.89,WNW,282,2.0,8.0,41,0.00,,,0.00,Wunderground v.1.15,2013-01-08 00:36:00,
2013-01-07 17:41:00,49.7,26.9,29.89,WNW,289,7.0,7.0,41,0.00,,,0.00,Wunderground v.1.15,2013-01-08 00:41:00,
2013-01-07 17:46:00,49.5,26.7,29.89,WNW,294,5.0,12.0,41,0.00,,,0.00,Wunderground v.1.15,2013-01-08 00:46:00,
2013-01-07 17:51:00,49.4,26.7,29.90,WNW,295,1.0,8.0,41,0.00,,,0.00,Wunderground v.1.15,2013-01-08 00:51:00,
2013-01-07 17:56:00,49.1,27.0,29.90,WNW,294,4.0,13.0,42,0.00,,,0.00,Wunderground v.1.15,2013-01-08 00:56:00,
2013-01-07 18:01:00,48.9,26.8,29.90,WNW,290,7.0,8.0,42,0.00,,,0.00,Wunderground v.1.15,2013-01-08 01:01:00,
2013-01-07 18:06:00,48.7,26.6,29.90,WNW,294,7.0,13.0,42,0.00,,,0.00,Wunderground v.1.15,2013-01-08 01:06:00,
2013-01-07 18:11:00,48.5,26.4,29.90,WNW,284,5.0,6.0,42,0.00,,,0.00,Wunderground v.1.15,2013-01-08 01:11:00,
2013-01-07 18:16:00,48.3,26.8,29.91,West,275,1.0,8.0,43,0.00,,,0.00,Wunderground v.1.15,2013-01-08 01:16:00,
2013-01-07 18:21:00,48.1,26.6,29.91,WNW,289,7.0,7.0,43,0.00,,,0.00,Wunderground v.1.15,2013-01-08 01:21:00,
2013-01-07 18:27:00,48.0,26.5,29.91,WSW,254,4.0,8.0,43,0.00,,,0.00,Wunderground v.1.15,2013-01-08 01:27:00,
2013-01-07 18:32:00,47.8,26.4,29.91,WNW,291,2.0,7.0,43,0.00,,,0.00,Wunderground v.1.15,2013-01-08 01:32:00,
2013-01-07 18:37:00,47.7,26.3,29.91,WNW,299,0.0,12.0,43,0.00,,,0.00,Wunderground v.1.15,2013-01-08 01:37:00,
2013-01-07 18:42:00,47.5,26.6,29.91,WNW,299,1.0,8.0,44,0.00,,,0.00,Wunderground v.1.15,2013-01-08 01:42:00,
2013-01-07 18:47:00,47.4,26.6,29.92,WNW,297,1.0,8.0,44,0.00,,,0.00,Wunderground v.1.15,2013-01-08 01:47:00,
2013-01-07 18:52:00,47.3,26.5,29.92,WNW,294,0.0,7.0,44,0.00,,,0.00,Wunderground v.1.15,2013-01-08 01:52:00,
2013-01-07 18:57:00,47.2,26.9,29.92,WNW,292,0.0,7.0,45,0.00,,,0.00,Wunderground v.1.15,2013-01-08 01:57:00,
2013-01-07 19:02:00,47.1,26.8,29.92,WNW,289,6.0,8.0,45,0.00,,,0.00,Wunderground v.1.15,2013-01-08 02:02:00,
2013-01-07 19:07:00,47.0,26.7,29.92,NW,305,1.0,8.0,45,0.00,,,0.00,Wunderground v.1.15,2013-01-08 02:07:00,
2013-01-07 19:12:00,46.9,26.6,29.92,WNW,302,1.0,6.0,45,0.00,,,0.00,Wunderground v.1.15,2013-01-08 02:12:00,
2013-01-07 19:17:00,46.8,27.1,29.92,WNW,299,0.0,8.0,46,0.00,,,0.00,Wunderground v.1.15,2013-01-08 02:17:00,
2013-01-07 19:22:00,46.7,27.0,29.93,WNW,294,6.0,6.0,46,0.00,,,0.00,Wunderground v.1.15,2013-01-08 02:22:00,
2013-01-07 19:27:00,46.7,27.0,29.93,WNW,302,1.0,6.0,46,0.00,,,0.00,Wunderground v.1.15,2013-01-08 02:27:00,
2013-01-07 19:32:00,46.7,27.0,29.93,WNW,298,0.0,7.0,46,0.00,,,0.00,Wunderground v.1.15,2013-01-08 02:32:00,
2013-01-07 19:37:00,46.8,27.1,29.93,WNW,298,1.0,12.0,46,0.00,,,0.00,Wunderground v.1.15,2013-01-08 02:37:00,
2013-01-07 19:42:00,47.0,26.7,29.92,WNW,302,7.0,15.0,45,0.00,,,0.00,Wunderground v.1.15,2013-01-08 02:42:00,
2013-01-07 19:47:00,47.0,26.7,29.93,WNW,296,2.0,15.0,45,0.00,,,0.00,Wunderground v.1.15,2013-01-08 02:47:00,
2013-01-07 19:52:00,46.9,27.2,29.93,WNW,292,2.0,9.0,46,0.00,,,0.00,Wunderground v.1.15,2013-01-08 02:52:00,
2013-01-07 19:57:00,46.7,27.0,29.93,WNW,290,1.0,9.0,46,0.00,,,0.00,Wunderground v.1.15,2013-01-08 02:57:00,
2013-01-07 20:02:00,46.5,26.8,29.93,WNW,295,2.0,7.0,46,0.00,,,0.00,Wunderground v.1.15,2013-01-08 03:02:00,
2013-01-07 20:07:00,46.1,27.5,29.93,WNW,296,5.0,7.0,48,0.00,,,0.00,Wunderground v.1.15,2013-01-08 03:07:00,
2013-01-07 20:12:00,45.5,27.4,29.93,WNW,299,0.0,4.0,49,0.00,,,0.00,Wunderground v.1.15,2013-01-08 03:12:00,
2013-01-07 20:17:00,45.1,27.6,29.93,WNW,300,0.0,5.0,50,0.00,,,0.00,Wunderground v.1.15,2013-01-08 03:17:00,
2013-01-07 20:22:00,44.7,27.7,29.94,WNW,300,0.0,4.0,51,0.00,,,0.00,Wunderground v.1.15,2013-01-08 03:22:00,
2013-01-07 20:27:00,44.5,27.5,29.93,WNW,300,0.0,4.0,51,0.00,,,0.00,Wunderground v.1.15,2013-01-08 03:27:00,
2013-01-07 20:32:00,44.3,27.8,29.93,WNW,300,0.0,0.0,52,0.00,,,0.00,Wunderground v.1.15,2013-01-08 03:32:00,
2013-01-07 20:37:00,43.8,27.3,29.93,WNW,300,0.0,2.0,52,0.00,,,0.00,Wunderground v.1.15,2013-01-08 03:37:00,
2013-01-07 20:42:00,43.5,27.5,29.93,WNW,300,0.0,1.0,53,0.00,,,0.00,Wunderground v.1.15,2013-01-08 03:42:00,
2013-01-07 20:47:00,43.3,27.8,29.93,WNW,300,0.0,4.0,54,0.00,,,0.00,Wunderground v.1.15,2013-01-08 03:47:00,
2013-01-07 20:52:00,43.3,27.8,29.93,WNW,300,0.0,5.0,54,0.00,,,0.00,Wunderground v.1.15,2013-01-08 03:52:00,
2013-01-07 20:57:00,43.1,27.6,29.93,WNW,300,5.0,5.0,54,0.00,,,0.00,Wunderground v.1.15,2013-01-08 03:57:00,
2013-01-07 21:02:00,43.3,27.8,29.94,WNW,300,1.0,4.0,54,0.00,,,0.00,Wunderground v.1.15,2013-01-08 04:02:00,
2013-01-07 21:07:00,43.5,27.5,29.95,WNW,300,0.0,4.0,53,0.00,,,0.00,Wunderground v.1.15,2013-01-08 04:07:00,
2013-01-07 21:13:00,43.7,27.7,29.94,WNW,300,2.0,5.0,53,0.00,,,0.00,Wunderground v.1.15,2013-01-08 04:13:00,
2013-01-07 21:18:00,43.9,27.4,29.94,WNW,299,4.0,5.0,52,0.00,,,0.00,Wunderground v.1.15,2013-01-08 04:18:00,
2013-01-07 21:22:00,44.1,27.6,29.94,WNW,299,0.0,2.0,52,0.00,,,0.00,Wunderground v.1.15,2013-01-08 04:22:00,
2013-01-07 21:27:00,44.0,27.5,29.94,WNW,299,0.0,2.0,52,0.00,,,0.00,Wunderground v.1.15,2013-01-08 04:27:00,
2013-01-07 21:32:00,43.8,27.3,29.94,WNW,299,0.0,0.0,52,0.00,,,0.00,Wunderground v.1.15,2013-01-08 04:32:00,
2013-01-07 21:38:00,43.5,27.5,29.94,WNW,299,0.0,0.0,53,0.00,,,0.00,Wunderground v.1.15,2013-01-08 04:38:00,
2013-01-07 21:43:00,43.2,27.7,29.94,WNW,299,0.0,0.0,54,0.00,,,0.00,Wunderground v.1.15,2013-01-08 04:43:00,
2013-01-07 21:48:00,42.9,27.4,29.94,WNW,299,0.0,2.0,54,0.00,,,0.00,Wunderground v.1.15,2013-01-08 04:48:00,
2013-01-07 21:53:00,42.6,27.1,29.94,WNW,300,0.0,1.0,54,0.00,,,0.00,Wunderground v.1.15,2013-01-08 04:53:00,
2013-01-07 21:58:00,42.3,27.3,29.94,WNW,299,0.0,1.0,55,0.00,,,0.00,Wunderground v.1.15,2013-01-08 04:58:00,
2013-01-07 22:00:00,42.1,27.1,29.94,WNW,299,0.0,0.0,55,0.00,,,0.00,Wunderground v.1.15,2013-01-08 05:00:00,
2013-01-07 22:02:00,42.0,27.0,29.94,WNW,299,0.0,0.0,55,0.00,,,0.00,Wunderground v.1.15,2013-01-08 05:02:00,
2013-01-07 22:03:00,41.9,27.3,29.94,WNW,299,0.0,0.0,56,0.00,,,0.00,Wunderground v.1.15,2013-01-08 05:03:00,
2013-01-07 22:08:00,41.6,27.1,29.94,WNW,299,0.0,0.0,56,0.00,,,0.00,Wunderground v.1.15,2013-01-08 05:08:00,
2013-01-07 22:13:00,41.6,27.1,29.94,WNW,299,0.0,2.0,56,0.00,,,0.00,Wunderground v.1.15,2013-01-08 05:13:00,
2013-01-07 22:18:00,41.8,27.2,29.93,WNW,299,0.0,2.0,56,0.00,,,0.00,Wunderground v.1.15,2013-01-08 05:18:00,
2013-01-07 22:23:00,42.0,27.0,29.93,WNW,299,0.0,4.0,55,0.00,,,0.00,Wunderground v.1.15,2013-01-08 05:23:00,
2013-01-07 22:28:00,42.1,27.1,29.93,WNW,299,0.0,4.0,55,0.00,,,0.00,Wunderground v.1.15,2013-01-08 05:28:00,
2013-01-07 22:33:00,42.2,27.2,29.93,WNW,299,0.0,0.0,55,0.00,,,0.00,Wunderground v.1.15,2013-01-08 05:33:00,
2013-01-07 22:38:00,42.1,27.1,29.93,WNW,299,0.0,2.0,55,0.00,,,0.00,Wunderground v.1.15,2013-01-08 05:38:00,
2013-01-07 22:43:00,41.9,26.9,29.93,WNW,299,0.0,0.0,55,0.00,,,0.00,Wunderground v.1.15,2013-01-08 05:43:00,
2013-01-07 22:48:00,41.8,26.8,29.94,WNW,299,0.0,0.0,55,0.00,,,0.00,Wunderground v.1.15,2013-01-08 05:48:00,
2013-01-07 22:53:00,41.8,26.8,29.95,WNW,299,0.0,0.0,55,0.00,,,0.00,Wunderground v.1.15,2013-01-08 05:53:00,
2013-01-07 22:58:00,41.7,26.7,29.95,WNW,299,0.0,0.0,55,0.00,,,0.00,Wunderground v.1.15,2013-01-08 05:58:00,
2013-01-07 23:03:00,41.4,27.3,29.95,NE,38,0.0,0.0,57,0.00,,,0.00,Wunderground v.1.15,2013-01-08 06:03:00,
2013-01-07 23:08:00,41.1,27.0,29.95,NE,38,0.0,0.0,57,0.00,,,0.00,Wunderground v.1.15,2013-01-08 06:08:00,
2013-01-07 23:13:00,41.0,26.9,29.95,NE,38,0.0,0.0,57,0.00,,,0.00,Wunderground v.1.15,2013-01-08 06:13:00,
2013-01-07 23:18:00,40.9,27.2,29.95,NE,38,0.0,0.0,58,0.00,,,0.00,Wunderground v.1.15,2013-01-08 06:18:00,
2013-01-07 23:23:00,40.6,27.0,29.95,NE,38,0.0,0.0,58,0.00,,,0.00,Wunderground v.1.15,2013-01-08 06:23:00,
2013-01-07 23:28:00,40.3,27.1,29.95,NE,38,0.0,0.0,59,0.00,,,0.00,Wunderground v.1.15,2013-01-08 06:28:00,
2013-01-07 23:33:00,39.5,26.8,29.95,NE,38,0.0,0.0,60,0.00,,,0.00,Wunderground v.1.15,2013-01-08 06:33:00,
2013-01-07 23:38:00,38.9,27.0,29.94,NE,38,0.0,0.0,62,0.00,,,0.00,Wunderground v.1.15,2013-01-08 06:38:00,
2013-01-07 23:43:00,39.2,27.3,29.94,NE,38,0.0,0.0,62,0.00,,,0.00,Wunderground v.1.15,2013-01-08 06:43:00,
2013-01-07 23:48:00,39.9,27.1,29.94,NE,38,0.0,0.0,60,0.00,,,0.00,Wunderground v.1.15,2013-01-08 06:48:00,
2013-01-07 23:53:00,40.5,27.3,29.94,NE,38,0.0,0.0,59,0.00,,,0.00,Wunderground v.1.15,2013-01-08 06:53:00,
2013-01-07 23:59:00,40.7,27.1,29.93,NE,38,0.0,0.0,58,0.00,,,0.00,Wunderground v.1.15,2013-01-08 06:59:00,